Location: Friaudour
(46.0460°N, 1.2873°E)
Time: 09:52:48
(UTC+00:00)

CZ-4 R/B - Pass Details

Date: 14 July 2020
Orbit: 682 x 752 km, 98.5° (Epoch: 05 August)

Event Time Altitude Azimuth Distance (km) Brightness Sun altitude
Rises 00:01:53 0° 18° (NNE) 3,084 8.4 -22.3°
Reaches altitude 10° 00:04:10 10° 23° (NNE) 2,171 7.3 -22.3°
Maximum altitude 00:08:50 55° 101° (E) 857 4.1 -22.3°
Enters shadow 00:09:36 49° 136° (SE) 919 4.1 -22.3°
